Location: Complexul Astronomic Baia Mare
(47.6577°N, 23.5639°E)
Time: 13:27:01
(UTC+03:00)

ISS - Pass Details

Date: 05 June 2017
Orbit: 401 x 408 km, 51.6° (Epoch: 23 June)

Event Time Altitude Azimuth Distance (km) Brightness Sun altitude
Rises 23:43:02 0° 291° (WNW) 2,339 0.8 -16.1°
Reaches altitude 10° 23:45:13 10° 282° (WNW) 1,474 -0.5 -16.3°
Maximum altitude 23:48:15 34° 216° (SW) 695 -2.9 -16.5°
Enters shadow 23:48:28 33° 206° (SSW) 701 -3.0 -16.5°
